Voltar ao catálogo

CZ-6A DEB

AtivoSSO
NORAD 54540·DEBRIS·🇨🇳 China

Lançado Nov 11, 2022 de Taiyuan Satellite Launch Center

Loading…

Próximas Passagens (próximas 24 horas)

TLE

AtualizadoSource: Space-Track

Época: Sep 14, 2026, 22:50 UTC

1 54540U 22151KQ  26257.95166024  .00000580  00000-0  29842-3 0  9995
2 54540  98.7824 264.9594 0052593  94.2484 266.4704 14.18384736198352

Acompanhe CZ-6A DEB em tempo real com AllMySat

Download on the App Store